Home > Weather > Nordhorn > Past weeks

Flag for Germany Past Weather in Nordhorn, Lower Saxony, Germany — Yesterday and Last 2 Weeks

Now
66 °F

Overcast.


Feels Like: 66 °F
Forecast: 58 / 67 °F
Wind: 5 mph from West

Location: Twenthe

Current Time: Jul 29, 2016 at 10:05:53 PM

Latest Report: Jul 29, 2016 at 9:00 PM


Visibility: 28 mi

Pressure: 29.86 "Hg

Humidity: 72%

Dew Point: 57 °F

Location of NordhornLocation

Past Weather in Nordhorn — Graph

°F

Nordhorn Temperature Yesterday

Maximum temperature yesterday: 72 °F (at 6:00 PM)
Minimum temperature yesterday: 57 °F (at 5:00 AM)
Average temperature yesterday: 63 °F

High & Low Weather Summary for the Past Weeks

 TemperatureHumidityPressure
High92 °F (Jul 20, 4:00 PM)100% (Jul 18, 2:00 AM)30.27 "Hg (Jul 18, 2:00 AM)
Low49 °F (Jul 15, 1:00 AM)23% (Jul 19, 4:00 PM)29.83 "Hg (Jul 20, 7:00 PM)
Average68 °F79%30.08 "Hg
* Reported Jul 14 8:00 PM — Jul 29 8:00 PM, Nordhorn, Weather by CustomWeather, © 2016

Note: Actual official high and low records may vary slightly from our data, if they occured in-between our weather recording intervals... More about our weather records

Advertising

Nordhorn Weather History for the Previous 24 Hours

Scroll right to see more
 ConditionsComfort  
Time TempWeatherWind HumidityBarometerVisibility
8:00 PM
Fri, Jul 29
69 °FOvercast.7 mph70%29.85 "Hg22 mi
7:00 PM70 °FOvercast.6 mph69%29.85 "Hg19 mi
6:00 PM72 °FPartly sunny.7 mph65%29.84 "Hg22 mi
5:00 PM71 °FOvercast.8 mph65%29.84 "Hg25 mi
4:00 PM75 °FOvercast.7 mph62%29.84 "Hg22 mi
3:00 PM71 °FOvercast.6 mph71%29.85 "Hg19 mi
2:00 PM69 °FOvercast.6 mph78%29.86 "Hg19 mi
1:00 PM68 °FOvercast.6 mph78%29.86 "Hg18 mi
12:00 PM67 °FOvercast.5 mph81%29.87 "Hg14 mi
11:00 AM66 °FOvercast.5 mph82%29.88 "Hg12 mi
10:00 AM67 °FOvercast.5 mph84%29.88 "Hg12 mi
9:00 AM64 °FLow clouds.5 mph87%29.88 "Hg11 mi
8:00 AM62 °FLow clouds.5 mph95%29.89 "Hg6 mi
6:00 AM61 °FLow clouds.3 mph92%29.89 "Hg7 mi
5:00 AM61 °FOvercast.2 mph92%29.89 "Hg8 mi
4:00 AM61 °FOvercast.3 mph88%29.90 "Hg8 mi
2:00 AM62 °FOvercast.2 mph91%29.91 "Hg7 mi
11:00 PM
Thu, Jul 28
62 °FFog.1 mph98%29.91 "Hg3 mi
10:00 PM62 °FOvercast.No wind99%29.92 "Hg3 mi
Weather by CustomWeather, © 2016

See weather overviewHow to use our weather pages